| time (UTC) | temp F | wind direction | speed knots | gust knots | rain 1hr in | rain 24hr in | rain mn in | humidity % | barometer mb |
| 20260505204539 | 38 | 74 | 0.0 | 0.0 | 0.00 | 0.00 | 0.00 | 62 | 1010.8 |
| 20260505203136 | 38 | 74 | 0.0 | 0.0 | 0.00 | 0.00 | 0.00 | 61 | 1010.7 |
| 20260505201542 | 39 | 74 | 0.0 | 0.9 | 0.00 | 0.00 | 0.00 | 57 | 1010.6 |
| 20260505200136 | 40 | 74 | 0.9 | 2.6 | 0.00 | 0.00 | 0.00 | 54 | 1010.5 |
| 20260505194540 | 41 | 82 | 0.9 | 1.7 | 0.00 | 0.00 | 0.00 | 51 | 1010.4 |
| 20260505193041 | 43 | 82 | 0.9 | 1.7 | 0.00 | 0.00 | 0.00 | 49 | 1010.2 |
| 20260505191537 | 43 | 238 | 0.0 | 1.7 | 0.00 | 0.00 | 0.00 | 44 | 1010.0 |
| 20260505190038 | 44 | 238 | 1.7 | 2.6 | 0.00 | 0.00 | 0.00 | 42 | 1009.9 |
| 20260505184540 | 45 | 247 | 1.7 | 2.6 | 0.00 | 0.00 | 0.00 | 40 | 1009.8 |
| 20260505183039 | 46 | 248 | 2.6 | 5.2 | 0.00 | 0.00 | 0.00 | 39 | 1009.7 |
| 20260505181546 | 47 | 272 | 3.5 | 7.0 | 0.00 | 0.00 | 0.00 | 38 | 1009.6 |
| 20260505180138 | 47 | 242 | 3.5 | 8.7 | 0.00 | 0.00 | 0.00 | 37 | 1009.4 |
| 20260505174543 | 48 | 262 | 7.8 | 9.6 | 0.00 | 0.00 | 0.00 | 35 | 1009.2 |
| 20260505173137 | 48 | 265 | 7.8 | 10.4 | 0.00 | 0.00 | 0.00 | 34 | 1009.2 |
| 20260505171540 | 49 | 269 | 7.0 | 9.6 | 0.00 | 0.00 | 0.00 | 33 | 1009.2 |
| 20260505170100 | 49 | 269 | 7.0 | 12.2 | 0.00 | 0.00 | 0.00 | 33 | 1009.1 |
| 20260505164543 | 49 | 271 | 8.7 | 13.0 | 0.00 | 0.00 | 0.00 | 33 | 1009.2 |
| 20260505163041 | 49 | 271 | 9.6 | 13.9 | 0.00 | 0.00 | 0.00 | 32 | 1009.2 |
| 20260505161538 | 49 | 249 | 7.8 | 15.6 | 0.00 | 0.00 | 0.00 | 35 | 1009.2 |
| 20260505160136 | 49 | 274 | 7.8 | 15.6 | 0.00 | 0.00 | 0.00 | 35 | 1009.1 |
| 20260505153041 | 50 | 284 | 9.6 | 13.9 | 0.00 | 0.00 | 0.00 | 36 | 1009.0 |
| 20260505151554 | 50 | 272 | 9.6 | 15.6 | 0.00 | 0.00 | 0.00 | 37 | 1009.1 |
| 20260505150138 | 50 | 292 | 8.7 | 15.6 | 0.00 | 0.00 | 0.00 | 36 | 1009.0 |
| 20260505140136 | 50 | 314 | 7.0 | 16.5 | 0.00 | 0.00 | 0.00 | 38 | 1008.9 |
| 20260505124542 | 49 | 313 | 7.8 | 16.5 | 0.00 | 0.00 | 0.00 | 39 | 1009.3 |
| 20260505123039 | 48 | 277 | 7.8 | 18.2 | 0.00 | 0.00 | 0.00 | 40 | 1009.3 |
| 20260505121551 | 48 | 294 | 11.3 | 15.6 | 0.00 | 0.00 | 0.00 | 36 | 1009.3 |
| 20260505120136 | 48 | 308 | 11.3 | 16.5 | 0.00 | 0.00 | 0.00 | 39 | 1009.4 |
| 20260505114540 | 47 | 267 | 11.3 | 19.1 | 0.00 | 0.00 | 0.00 | 40 | 1009.5 |
| 20260505113041 | 47 | 303 | 12.2 | 18.2 | 0.00 | 0.00 | 0.00 | 39 | 1009.4 |
| 20260505111544 | 46 | 300 | 10.4 | 16.5 | 0.00 | 0.00 | 0.00 | 41 | 1009.3 |
| 20260505101551 | 46 | 251 | 12.2 | 15.6 | 0.00 | 0.00 | 0.00 | 45 | 1009.1 |
| 20260505100136 | 46 | 261 | 10.4 | 14.8 | 0.00 | 0.00 | 0.00 | 46 | 1009.0 |
| 20260505094542 | 46 | 321 | 8.7 | 14.8 | 0.00 | 0.00 | 0.00 | 45 | 1008.9 |
| 20260505093041 | 45 | 278 | 9.6 | 17.4 | 0.00 | 0.00 | 0.00 | 49 | 1008.8 |
| 20260505091541 | 45 | 279 | 7.8 | 13.0 | 0.00 | 0.00 | 0.00 | 52 | 1008.7 |
| 20260505090137 | 45 | 288 | 7.0 | 13.0 | 0.00 | 0.00 | 0.00 | 50 | 1008.7 |
| 20260505084636 | 44 | 277 | 10.4 | 14.8 | 0.00 | 0.00 | 0.00 | 52 | 1008.6 |
| 20260505083136 | 44 | 266 | 10.4 | 14.8 | 0.00 | 0.00 | 0.00 | 50 | 1008.6 |
| 20260505081542 | 44 | 265 | 8.7 | 13.0 | 0.00 | 0.00 | 0.00 | 52 | 1008.5 |
| 20260505080135 | 44 | 281 | 6.1 | 11.3 | 0.00 | 0.00 | 0.00 | 56 | 1008.3 |
| 20260505074543 | 44 | 333 | 6.1 | 11.3 | 0.00 | 0.00 | 0.00 | 57 | 1008.3 |
| 20260505073039 | 44 | 290 | 7.8 | 12.2 | 0.00 | 0.00 | 0.00 | 59 | 1008.2 |
| 20260505071537 | 43 | 321 | 7.0 | 11.3 | 0.00 | 0.00 | 0.00 | 59 | 1008.1 |
| 20260505070042 | 43 | 327 | 6.1 | 12.2 | 0.00 | 0.00 | 0.00 | 60 | 1008.0 |
| 20260505064537 | 42 | 290 | 8.7 | 13.0 | 0.00 | 0.00 | 0.00 | 60 | 1007.9 |
| 20260505063039 | 42 | 294 | 8.7 | 13.0 | 0.00 | 0.00 | 0.00 | 62 | 1007.7 |
| 20260505061545 | 42 | 297 | 8.7 | 12.2 | 0.00 | 0.00 | 0.00 | 64 | 1007.8 |
| 20260505060039 | 42 | 301 | 9.6 | 13.0 | 0.00 | 0.00 | 0.00 | 66 | 1007.6 |
| 20260505054540 | 42 | 282 | 7.8 | 12.2 | 0.00 | 0.00 | 0.00 | 66 | 1007.5 |
| 20260505053043 | 42 | 276 | 7.8 | 12.2 | 0.00 | 0.00 | 0.00 | 67 | 1007.4 |
| 20260505051536 | 41 | 294 | 5.2 | 9.6 | 0.00 | 0.00 | 0.00 | 69 | 1007.1 |
| 20260505041538 | 39 | 271 | 3.5 | 8.7 | 0.00 | 0.01 | 0.00 | 76 | 1006.7 |
| 20260505040136 | 39 | 272 | 2.6 | 4.3 | 0.00 | 0.01 | 0.00 | 77 | 1006.5 |
| 20260505034539 | 38 | 281 | 3.5 | 6.1 | 0.00 | 0.04 | 0.00 | 77 | 1006.3 |
| 20260505033136 | 38 | 301 | 1.7 | 3.5 | 0.00 | 0.04 | 0.00 | 76 | 1006.2 |
| 20260505031541 | 38 | 308 | 2.6 | 4.3 | 0.00 | 0.04 | 0.00 | 75 | 1006.1 |
| 20260505030138 | 39 | 302 | 2.6 | 4.3 | 0.00 | 0.04 | 0.00 | 74 | 1006.0 |
| 20260505024541 | 40 | 309 | 3.5 | 0.0 | 0.00 | 0.00 | 0.00 | 74 | 1005.9 |
| 20260505023044 | 41 | 305 | 3.5 | 7.8 | 0.00 | 0.08 | 0.00 | 73 | 1005.8 |
| 20260505021536 | 42 | 299 | 5.2 | 9.6 | 0.00 | 0.08 | 0.00 | 76 | 1005.8 |
| 20260505020046 | 42 | 290 | 6.1 | 8.7 | 0.00 | 0.08 | 0.00 | 90 | 1005.8 |
| 20260505014536 | 43 | 263 | 7.0 | 10.4 | 0.00 | 0.09 | 0.00 | 91 | 1005.5 |
| 20260505013039 | 43 | 257 | 8.7 | 12.2 | 0.00 | 0.09 | 0.00 | 90 | 1005.3 |
| 20260505011540 | 43 | 262 | 8.7 | 13.0 | 0.00 | 0.09 | 0.00 | 90 | 1005.2 |
| 20260505010137 | 43 | 242 | 8.7 | 13.0 | 0.00 | 0.09 | 0.00 | 90 | 1005.2 |
| 20260505004545 | 43 | 216 | 7.0 | 13.0 | 0.00 | 0.09 | 0.00 | 90 | 1005.1 |
| 20260505003038 | 43 | 244 | 7.0 | 10.4 | 0.00 | 0.09 | 0.00 | 89 | 1005.1 |
| 20260505001540 | 44 | 229 | 8.7 | 13.9 | 0.00 | 0.09 | 0.00 | 89 | 1004.9 |
| 20260505000135 | 44 | 225 | 7.8 | 14.8 | 0.00 | 0.09 | 0.00 | 89 | 1004.8 |
| 20260504234603 | 44 | 213 | 8.7 | 14.8 | 0.00 | 0.09 | 0.00 | 89 | 1004.9 |
| 20260504233038 | 44 | 243 | 10.4 | 13.9 | 0.00 | 0.09 | 0.00 | 88 | 1004.8 |
| 20260504231548 | 44 | 235 | 9.6 | 17.4 | 0.00 | 0.09 | 0.00 | 88 | 1004.8 |
| 20260504230037 | 44 | 229 | 8.7 | 13.9 | 0.00 | 0.09 | 0.00 | 87 | 1004.8 |
| 20260504224540 | 44 | 226 | 7.8 | 14.8 | 0.00 | 0.09 | 0.00 | 87 | 1004.9 |
| 20260504223036 | 45 | 229 | 9.6 | 16.5 | 0.00 | 0.09 | 0.00 | 86 | 1004.9 |
| 20260504221542 | 45 | 213 | 9.6 | 15.6 | 0.00 | 0.09 | 0.00 | 85 | 1004.9 |
| 20260504220135 | 45 | 202 | 8.7 | 16.5 | 0.00 | 0.09 | 0.00 | 83 | 1004.8 |
| 20260504214539 | 46 | 221 | 11.3 | 18.2 | 0.00 | 0.09 | 0.09 | 82 | 1004.8 |
| 20260504213037 | 46 | 234 | 7.0 | 15.6 | 0.00 | 0.09 | 0.09 | 80 | 1004.8 |
| 20260504211541 | 46 | 204 | 10.4 | 18.2 | 0.00 | 0.09 | 0.09 | 78 | 1004.9 |
| 20260504210036 | 47 | 220 | 10.4 | 13.9 | 0.00 | 0.09 | 0.09 | 75 | 1004.9 |